Regional Weather Roundup
Issued by NWS Huntsville, AL

Home | Current Version | Previous Version | Text Only | Print | Product List | Glossary On
Versions: 1 2 3 4 5 6 7 8 9 10 11 12 13 14 15 16 17 18 19 20 21 22 23 24 25 26 27
000
ASUS44 KHUN 310610
RWRHUN

WEATHER ROUNDUP FOR THE TENNESSEE VALLEY
NATIONAL WEATHER SERVICE HUNTSVILLE AL
100 AM CDT SAT JUL 31 2021

ALZ001>004-310700-
NORTHWEST ALABAMA

CITY           SKY/WX    TMP DP  RH WIND       PRES   REMARKS
SHOALS AIRPORT NOT AVBL
$$

ALZ005>007-016-310700-
NORTH CENTRAL ALABAMA

CITY           SKY/WX    TMP DP  RH WIND       PRES   REMARKS
CULLMAN AG STN   N/A     72 N/A N/A CALM        N/A
DECATUR AP     CLOUDY    74  73  97 SE5       30.01F
6HR MIN TEMP:  73; 6HR MAX TEMP:  77; 6HR PCP:  0.20;

HUNTSVILLE AP  LGT RAIN  75  73  93 S3        30.01F
6HR MIN TEMP:  73; 6HR MAX TEMP:  75; 6HR PCP:  0.19;

HUN NWS/UAH      N/A     75  74  97 SE1         N/A
MERIDIANVILLE  CLEAR     74  73  98 CALM      30.02F
VINEMONT AP    FAIR      72  70  93 CALM      30.06S
$$

ALZ008>010-310700-
NORTHEAST ALABAMA

CITY           SKY/WX    TMP DP  RH WIND       PRES   REMARKS
ALBERTVILLE    CLOUDY    72  70  94 S3        30.03F
FORT PAYNE     MOCLDY    73  71  92 CALM      30.02S
SCOTTSBORO AP  CLOUDY    75  75 100 CALM      30.01F
$$

TNZ076-096-097-310700-
SOUTHEASTERN MIDDLE TENNESSEE

CITY           SKY/WX    TMP DP  RH WIND       PRES   REMARKS
FAYETTEVILLE   CLEAR     73  73 100 CALM      30.04F
TULLAHOMA      CLEAR     75  73  94 CALM      30.02F
WINCHESTER     MOCLDY    73  72  94 CALM      30.02F
$$

...SURROUNDING SITES...

CITY           SKY/WX    TMP DP  RH WIND       PRES   REMARKS
ATLANTA        MOCLDY    79  71  76 W6        30.01S
ANNISTON       CLOUDY    75  72  90 CALM      30.03F
BIRMINGHAM     MOCLDY    74  71  91 CALM      30.04F
CHATTANOOGA    MOCLDY    80  72  76 N5        30.00F
CORINTH        MOCLDY    75  73  94 CALM      30.02F
DALTON         CLOUDY    73  72  94 CALM      30.02F
GADSDEN        CLOUDY    72  72 100 CALM      30.02F
GOLDEN TRNGL   MOCLDY    79  79 100 W3        30.02F
HALEYVILLE     FAIR      73  71  93 NW5       30.05F
JACKSON TN     MOCLDY    75  72  90 CALM      30.02F
MEMPHIS        PTCLDY    85  76  74 E6        30.01F HX  94
NASHVILLE      MOCLDY    78  70  76 NE7       30.03F
OXFORD MS      CLEAR     79  79 100 CALM      30.03F
ROME           CLOUDY    77  72  84 SW5       30.00S
SAVANNAH       CLOUDY    73  73 100 CALM      30.01F
SELMER         PTCLDY    75  72  88 CALM      30.02F
TUPELO         PTCLDY    83  78  85 CALM      30.01F HX  93
TUSCALOOSA     PTCLDY    80  79  96 SE3       30.00F
$$




USA.gov is the U.S. government's official web portal to all federal, state and local government web resources and services.